GFSNIL_prec_radar_000.txt.gz
Reflectivity
-20 -20 -20 -20 -20 -20 -20 -20 -20 -20 -20 -20 -20 -20 -20 -20 -20 -20 -20 -20 -20 -20
-20 -20 -20 -20 -20 -20 -20 -20 -20 -20 -20 -20 -20 -20 -20 -20 -20 -20 -20 -20 -20 -20
-20 -20 -20 -20 -20 -20 -20 -20 -20 -20 -20 -20 -20 -20 -20 -20 -20 -20 -20 -20 -20 -20
-20 -20 -20 -20 -20 -20 -20 -20 -20 -20 -20 -20 -20 -20 -20 -20 -20 -20 -20 -20 -20 -20
-20 -20 -20 -20 -20 -20 -20 -20 -20 -20 -20 -20 -20 -20 -20 -20 -20 -20 -20 -20 -20 -20
-20 -20 -20 -20 -20 -20 -20 -20 -20 -20 -20 -20 -20 -20 -20 -20 -20 -20 -20 -20 -20 -20
-20 -20 -20 -20 -20 -20 -20 -20 -20 -20 -20 -20 -20 -20 -20 -20 -20 -20 -20 -20 -20 -20
-20 -20 -20 -20 -20 -20 -20 -20 -20 -20 -20 -20 -20 -20 -20 -20 -20 -20 -20 -20 -20 -20
-20 -20 -20 -20 -20 -20 -20 -20 -20 -20 -20 -20 -20 -20 -20 -20 -20 -20 -20 -20 -20 -20
-20 -20 -20 -20 -20 -20 -20 -20 -20 -20 -20 -20 -20 -20 -20 -20 -20 -20 -20 -20 -20 -20
-20 -20 -20 -20 -20 -20 -20 -20 -20 -20 -20 -20 -20 -20 -20 -20 -20 -20 -20 -20 -20 -20
-20 -20 -20 -20 -20 -20 -20 -20 -20 -20 -20 -20 -20 -20 -20 -20 -20 -20 -20 -20 -20 -20
-20 -20 -20 -20 -20 -20 -20 -20 -20 -20 -20 -20 -20 -20 -20 -20 -20 -20 -20 -20 -20 -20
-20 -20 -20 -20 -20 -20 -20 -20 -20 -20 -20 -20 -20 -20 -20 -20 -3 -12 -20 -20 -20 -20

GFSNIL_prec_radar_006.txt.gz
Reflectivity
-20 -20 -20 -20 -20 -20 -20 -20 -20 -20 -20 -20 -20 -20 -20 -20 -20 -20 -20 -20 -20 -20
-20 -20 -20 -20 -20 -20 -20 -20 -20 -20 -20 -20 -20 -20 -20 -20 -20 -20 -20 -20 -20 -20
-20 -20 -20 -20 -20 -20 -20 -20 -20 -20 -20 -20 -20 -20 -20 -20 -20 -20 -20 -20 -20 -20
-20 -20 -20 -20 -20 -20 -20 -20 -20 -20 -20 -20 -20 -20 -20 -20 -20 -20 -20 -20 -20 -20
-20 -20 -20 -20 -20 -20 -20 -20 -20 -20 -20 -20 -20 -20 -20 -20 -20 -20 -20 -20 -20 -20
-20 -20 -20 -20 -20 -20 -20 -20 -20 -20 -20 -20 -20 -20 -20 -20 -20 -20 -20 -20 -20 -20
-20 -20 -20 -20 -20 -20 -20 -20 -20 -20 -20 -20 -20 -20 -20 -20 -20 -20 -20 -20 -20 -20
-20 -20 -20 -20 -20 -20 -20 -20 -20 -20 -20 -20 -20 -20 -20 -20 -20 -20 -20 -20 -20 -20
-20 -20 -20 -20 -20 -20 -20 -20 -20 -20 -20 -20 -20 -20 -20 -20 -20 -20 -20 -20 -20 -20
-20 -20 -20 -20 -20 -20 -20 -20 -20 -20 -20 -20 -20 -20 -20 -20 -20 -20 -20 -20 -20 -20
-20 -20 -20 -20 -20 -20 -20 -20 -20 -20 -20 -20 -20 -20 -20 -20 -20 -20 -20 -20 -20 -20
-20 -20 -20 -20 -20 -20 -20 -20 -20 -20 -20 -20 -20 -20 -20 -20 -20 -20 -20 -20 -20 -20
-20 -20 -20 -20 -20 -20 -20 -20 -20 -20 -20 -20 -20 -20 -20 -20 -20 -20 -20 -20 -20 -20
-20 -20 -20 -20 -20 -20 -20 -20 -20 -20 -20 -20 -20 -20 -20 -20 -20 -20 -8 -20 -20 -20

GFSNIL_prec_radar_009.txt.gz
Reflectivity
-19 -20 -20 -20 -20 -20 -20 -20 -20 -20 -20 -20 -20 -20 -20 -20 -20 -20 -20 -20 -20 -20
-2 -20 -20 -20 -20 -20 -20 -20 -20 -20 -20 -20 -20 -20 -20 -20 -20 -20 -20 -20 -20 -20
-20 -20 -20 -20 -20 -20 -20 -20 -20 -20 -20 -20 -20 -20 -20 -20 -20 -20 -20 -20 -20 -20
-20 -20 -20 -20 -20 -20 -20 -20 -20 -20 -20 -20 -20 -20 -20 -20 -20 -20 -20 -20 -20 -20
-20 -20 -20 -20 -20 -20 -20 -20 -20 -20 -20 -20 -20 -20 -20 -20 -20 -20 -20 -20 -20 -20
-20 -20 -20 -20 -20 -20 -20 -20 -20 -20 -20 -20 -20 -20 -20 -20 -20 -20 -20 -20 -20 -20
-20 -20 -20 -20 -20 -20 -20 -20 -20 -20 -20 -20 -20 -20 -20 -20 -20 -20 -20 -20 -20 -20
-20 -20 -20 -20 -20 -20 -20 -20 -20 -20 -20 -20 -20 -20 -20 -20 -20 -20 -20 -20 -20 -20
-20 -20 -20 -20 -20 -20 -20 -20 -20 -20 -20 -20 -20 -20 -20 -20 -20 -20 -20 -20 -20 -20
-20 -20 -20 -20 -20 -20 -20 -20 -20 -20 -20 -20 -20 -20 -20 -20 -20 -20 -20 -20 -20 -20
-20 -20 -20 -20 -20 -20 -20 -20 -20 -20 -20 -20 -20 -20 -20 -20 -20 -20 -20 -20 -20 -20
-20 -20 -20 -20 -20 -20 -20 -20 -20 -20 -20 -20 -20 -20 -20 -20 -20 -20 -20 -20 -20 -20
-20 -20 -20 -20 -20 -20 -20 -20 -20 -20 -20 -20 -20 -20 -20 -20 -20 -20 -20 -20 -20 -20
-20 -20 -20 -20 -20 -20 -20 -20 -20 -20 -20 -20 -20 -20 -20 -20 -20 -14 -3 -19 -9 -13

GFSNIL_prec_radar_012.txt.gz
Reflectivity
-20 20 -20 -20 -20 -20 -20 -20 -20 -20 -20 -20 -20 -20 -20 -20 -20 -20 -20 -20 -20 -20
-10 19 -20 -20 -20 -20 -20 -20 -20 -20 -20 -20 -20 -20 -20 -20 -20 -20 -20 -20 -20 -20
12 -20 -20 -20 -20 -20 -20 -20 -20 -20 -20 -20 -20 -20 -20 -20 -20 -20 -20 -20 -20 -20
4 -20 -20 -20 -20 -20 -20 -20 -20 -20 -20 -20 -20 -20 -20 -20 -20 -20 -20 -20 -20 -20
7 2 -14 -20 -20 -20 -20 -20 -20 -20 -20 -20 -20 -20 -20 -20 -20 -20 -20 -20 -20 -20
-20 -20 -20 -20 -20 -20 -20 -20 -20 -20 -20 -20 -20 -20 -20 -20 -20 -20 -20 -20 -20 -20
-20 -20 -20 -20 -20 -20 -20 -20 -20 -20 -20 -20 -20 -20 -20 -20 -20 -20 -20 -20 -20 -20
-20 -20 -20 -20 -20 -20 -20 -20 -14 -20 -20 -20 -20 -20 -20 -20 -20 -20 -20 -20 -20 -20
9 -20 -20 -20 -20 -20 -20 -0 -20 -20 -20 -20 -20 -20 -20 -20 -20 -20 -20 -20 -20 -20
-19 -20 -20 -20 -20 -20 -20 -20 -20 -20 -20 -20 -20 -20 -20 -20 -20 -20 -20 -20 -20 -20
-20 -20 -20 -20 -20 -20 -20 -20 -20 -20 -20 -20 -20 -20 -20 -20 -20 -20 -20 -20 -20 -20
-20 -20 -20 -20 -20 -20 -20 -20 -20 -20 -20 -20 -20 -20 -20 -20 -20 -20 -20 -20 -20 -20
-20 -20 -20 -20 -20 -20 -20 -20 -20 -20 -20 -20 -20 -20 -20 -20 -20 -20 -20 -20 -20 -20
-20 -20 -20 -20 -20 -20 -20 -20 -20 -20 -20 -20 -20 -20 -20 -20 -20 -20 -20 -20 -16 -20

GFSNIL_prec_radar_018.txt.gz
Reflectivity
-20 -20 -20 -20 -13 -20 -20 -20 -20 -15 9 -20 -20 -20 -20 -20 -20 -20 -20 -20 -20 -20
-20 -20 -20 -20 20 -20 -20 -20 5 1 -11 -20 -20 -20 -20 -20 -20 -20 -20 -20 -20 -20
-20 -20 -20 -13 -20 -9 -1 0 -13 -10 -20 -20 -20 -20 -20 -20 -20 -20 -20 -20 -20 -20
-20 -20 -20 -20 -3 -17 -5 9 -16 -20 -20 -20 -20 -20 -20 -20 -20 -20 -20 -20 -20 -20
-5 -20 6 -18 -20 -4 -6 9 12 -18 -20 -20 -20 -20 -20 -20 -20 -20 -20 -20 -20 -20
-14 -19 -16 -5 -11 -17 6 10 9 -20 -20 -20 -20 -20 -20 -20 -20 -20 -20 -20 -20 -20
13 -19 -8 11 -8 -14 2 6 -7 -20 -20 -20 -20 -8 -17 -20 -20 -20 -20 -20 -20 -20
-20 15 20 -15 5 20 13 -1 -20 -20 -20 -4 -3 -20 -7 -20 -20 -20 -20 -20 -20 -20
-20 23 -18 16 4 -4 5 -7 -20 -15 17 5 -14 -16 -18 -17 -20 -20 -20 -20 -20 -20
16 4 39 22 19 19 -20 -17 14 17 -8 -18 -15 8 -4 -20 -20 -20 -20 -20 -20 -20
28 42 38 27 13 -1 4 -13 -20 -20 -17 -2 3 -20 -20 -20 -20 -20 -20 -20 -20 -20
22 32 35 28 16 -5 -1 -20 -12 12 13 -16 -20 -20 -20 -20 -20 -20 -20 -20 -20 -20
32 28 -2 -2 -3 -17 -18 17 8 -20 -20 -20 -20 -20 -20 -20 -20 -20 -20 -20 -20 -20
14 -8 1 -18 -3 21 -2 -20 -20 -20 -20 -20 -20 -20 -20 -20 -20 -20 -20 -20 -20 -20

GFSNIL_prec_radar_021.txt.gz
Reflectivity
-20 18 23 19 11 -20 -20 -10 13 -6 -20 -20 -20 1 -20 -20 -20 -20 -20 -20 -20 -20
-15 14 19 18 -18 -20 -20 6 13 -3 -15 -20 14 15 -20 -20 -20 -20 -20 -20 -20 -20
19 21 9 7 -20 -20 10 12 -3 17 -7 -6 3 13 -20 -20 -20 -20 -20 -20 -20 -20
21 5 -20 -13 -20 4 18 8 -20 25 -9 24 -19 8 -20 -20 -20 -20 -20 -20 -20 -20
25 -20 -6 3 -20 -16 -9 -10 -15 20 6 -20 12 -20 -20 -20 -20 -20 -20 -20 -20 -20
-20 -0 13 -15 11 -7 -2 17 18 6 1 15 -19 -20 -20 -20 -20 -20 -20 -20 -20 -20
1 18 -11 8 -19 -3 5 13 3 21 2 11 -20 -20 -20 -20 -5 15 -20 -20 -20 -20
2 12 -1 16 15 -16 8 23 11 22 -4 -10 -20 -20 -20 0 -7 -20 -20 -20 -20 -20
-15 8 17 -10 14 25 25 -3 15 19 -8 -20 -19 1 -7 -14 -8 -13 -15 -20 -20 -20
9 1 35 -8 22 26 28 28 16 20 1 20 -20 -18 -20 -20 -17 -20 -20 -20 -20 -20
6 33 15 23 31 32 38 30 31 32 0 4 -15 -20 -15 -20 -20 -20 -20 -20 -20 -20
21 23 30 40 41 36 29 29 20 4 -20 -20 -20 -20 -20 -20 -20 -20 -20 -20 -20 -20
40 37 36 31 18 13 14 6 -19 -9 -13 -20 -20 -20 -20 -20 -20 -20 -20 -20 -20 -20
30 15 13 17 7 -4 -3 -2 -20 -20 -20 -20 -20 -20 -20 -20 -20 -20 -20 -20 -20 -20

GFSNIL_prec_radar_024.txt.gz
Reflectivity
-20 -15 7 5 7 -13 -20 15 16 18 -20 20 14 -20 -10 6 -20 12 -20 -20 -20 -20
-20 -20 -20 -20 -20 -20 18 13 8 -20 -20 17 17 -7 -18 -20 -12 25 -20 -20 -20 -20
-20 -20 -20 -20 9 -8 14 13 -20 -20 2 18 2 6 17 -4 9 15 -18 -20 -20 -20
-20 -20 5 19 18 14 2 -4 -20 16 11 14 18 8 -12 -3 14 -1 -17 -20 -20 -20
-20 -20 14 16 16 10 -20 -20 -20 -10 13 13 -1 34 22 34 -19 -12 -18 -20 -20 -20
-20 11 -5 24 21 -1 -12 -19 13 -4 11 -4 1 8 8 11 -8 -15 -20 -20 -20 4
19 26 6 15 17 -20 13 12 22 12 22 36 23 23 13 7 -13 -20 -20 -20 -2 -19
25 24 -14 7 14 10 -6 13 10 18 38 25 30 24 26 10 -6 -20 7 -10 -3 -19
-14 16 15 13 7 -20 19 19 21 35 21 20 9 13 24 0 -18 12 -18 -20 -20 -20
2 -4 24 1 -5 24 21 34 26 21 36 20 -2 -3 17 13 -4 -9 -20 -20 -20 -20
33 30 -16 5 30 37 28 11 22 36 38 34 32 28 15 5 -2 -20 -20 -20 -20 -20
23 21 16 32 34 37 30 38 38 29 24 19 17 15 -11 -20 -20 -20 -20 -20 -20 -20
29 22 33 40 24 25 34 32 26 17 14 8 -20 -20 -20 -20 -20 -20 -20 -20 -20 -20
32 29 31 33 31 17 10 1 -13 -16 -14 -20 -20 -20 -20 -20 -20 -20 -20 -20 -20 -20

GFSNIL_prec_radar_030.txt.gz
Reflectivity
-20 -20 -20 -20 -20 -20 -20 -16 15 -20 1 19 20 17 16 19 10 10 11 14 33 20
-20 -20 -20 -20 -20 -20 -20 -20 -20 -10 24 20 15 16 13 -17 -19 -7 -8 14 30 28
-20 -20 -20 -20 -20 -20 -20 -0 -20 -6 -13 24 39 12 12 -20 -19 8 -20 -20 24 22
-20 -20 -20 -20 -20 -20 -20 -20 -20 4 8 12 22 18 -1 -20 -10 -7 24 -10 19 4
-20 -20 -20 -20 -20 -20 -20 -20 -20 -20 -5 3 13 -3 -20 -5 -2 -8 34 -18 20 31
-16 -2 -16 -20 -20 -12 -20 -20 -20 -10 5 13 11 -16 -20 -6 11 22 -12 30 4 34
4 -6 -18 9 -3 -20 -20 -20 12 16 9 10 10 -2 -17 -10 -12 27 18 23 22 33
17 9 -20 2 -7 -20 -20 -20 -12 18 9 4 8 17 -16 23 32 7 11 24 35 28
7 -20 -20 -13 -12 -17 4 -18 20 17 11 21 11 23 15 30 1 12 19 28 29 32
-20 -20 -20 -1 19 19 -12 9 7 26 22 -11 9 18 24 29 13 26 30 26 36 25
8 1 -17 -5 -2 4 10 30 20 22 26 11 10 36 29 27 28 29 28 25 21 21
-14 6 16 -4 -6 5 35 28 35 30 24 30 30 28 26 24 20 16 12 3 -3 -7
3 17 25 35 37 31 30 34 38 35 29 31 29 30 28 22 -1 -6 -11 -19 -20 -20
31 25 33 35 20 15 7 16 20 26 25 22 18 7 -9 -18 -20 -20 -20 -20 -20 -20

GFSNIL_prec_radar_033.txt.gz
Reflectivity
-20 -7 -0 -20 -20 -20 -20 -20 -20 8 13 20 -15 23 22 21 20 19 18 13 7 9
-20 -20 -20 -20 -20 -20 -20 -20 -20 -19 -4 -9 20 24 26 21 19 -2 2 -14 0 8
-20 -20 -20 -20 -20 -20 -20 -20 -20 -20 -20 -20 14 17 23 25 23 -6 -2 12 -10 -11
-20 -20 -20 -9 -1 -20 -20 -20 -20 -12 -15 -20 -20 -3 17 22 22 22 17 6 -15 -20
-20 -20 -20 -19 -19 -13 -7 -20 -20 -17 -7 -20 -20 -20 7 -18 20 16 26 -19 -20 4
-20 -20 -20 -20 -20 -8 -20 -20 -20 -20 -20 -20 -16 -16 -20 -18 14 24 -17 -20 -1 29
-20 -20 -19 -19 -17 -12 16 19 2 -20 -20 -20 7 -5 -3 8 14 -20 -6 7 12 17
-20 -20 -15 -19 19 25 15 -3 20 -14 -20 -20 -13 18 18 13 -5 -1 20 25 18 23
-20 -20 -20 -19 12 9 12 -7 23 3 -14 -19 17 19 15 18 24 22 20 25 22 24
-20 -18 -14 6 10 14 6 3 14 -1 20 4 7 23 17 31 27 28 27 20 25 23
-20 -4 0 7 8 -4 1 -1 -2 24 21 23 29 34 26 28 6 12 18 20 22 16
-20 0 3 8 11 9 6 -8 27 36 28 30 25 31 12 5 13 14 18 15 12 2
-6 13 18 20 19 -1 5 18 9 28 36 40 35 22 7 14 18 15 -1 -20 -20 -20
13 23 26 31 30 35 22 22 22 20 19 15 16 14 10 5 -5 -12 -12 -20 -20 -20

GFSNIL_prec_radar_036.txt.gz
Reflectivity
-20 -20 -20 -20 -20 -20 -20 -6 -20 -20 -20 -20 -20 -7 20 -15 23 24 20 19 17 3
-20 -20 -20 -20 -20 -20 -20 -20 -20 -20 -20 -12 9 -16 -20 -20 20 25 26 22 19 -5
-20 -20 -20 -20 -20 -20 -20 -14 -20 -20 -20 -20 -20 14 15 11 13 21 17 25 25 10
-20 -20 -20 -20 -20 -20 -20 -19 1 2 -20 -20 -20 -20 7 17 17 1 17 19 19 38
-20 -20 -20 -20 -20 -20 -20 -20 -20 -18 4 21 -13 -20 -2 17 19 22 -18 17 16 14
-20 -20 -20 -20 -20 -20 -18 -12 -18 -15 -20 15 -18 5 9 18 23 12 -6 -17 17 13
-20 -20 -20 -20 -20 -20 -18 -0 -7 0 -20 -20 -20 -8 -9 10 18 -20 15 14 10 23
-20 -20 -20 -20 -20 -20 -20 -20 -20 -20 -19 3 12 12 -20 -6 -19 4 24 13 -4 30
-20 -20 -20 -20 -20 -20 -20 -20 -20 4 4 15 18 17 16 17 20 13 13 4 -4 21
-20 -20 -20 -20 -20 -20 -20 -19 1 -8 -13 -7 0 18 10 26 10 6 16 18 21 24
-20 -20 -20 -20 -20 -1 6 11 6 1 -13 7 21 27 16 23 25 15 21 16 -13 -14
-20 -20 -20 -20 -4 6 9 15 10 17 10 17 21 36 30 34 27 19 -2 -20 -20 -20
-6 -7 -6 2 13 -3 -5 -3 2 24 31 34 31 32 25 14 -14 -6 -20 -20 -19 -19
-20 -20 -20 -14 -9 -9 -6 20 22 25 29 24 20 13 9 5 -7 -20 -14 -13 -18 -20

GFSNIL_prec_radar_039.txt.gz
Reflectivity
-20 -20 -20 -20 -20 -20 -20 -20 -16 -20 -20 10 1 -1 14 10 8 2 0 21 21 24
-20 -20 -20 -20 -20 -20 -20 -20 -20 6 -7 -14 6 5 -0 15 13 18 -3 -20 18 20
-20 -20 -20 -20 -20 -20 -20 -20 -20 -20 -16 -7 0 9 13 12 24 13 16 20 21 20
-20 -20 -20 -20 -20 -20 -20 -20 -20 -18 10 17 -18 14 18 20 19 23 24 18 18 18
-20 -20 -20 -20 -20 -20 -20 -20 -20 -20 -20 -20 -20 8 14 -4 10 14 19 21 24 17
-20 -20 -20 -20 -20 -20 -20 -20 -20 -20 -20 7 -5 10 10 13 3 15 15 12 18 9
-20 -20 -20 -20 -20 -20 -20 -20 -20 -20 -20 -18 23 11 11 11 15 -15 -3 12 11 12
-20 -20 -20 -20 -20 -20 -20 -20 -20 -20 -20 -20 -20 -20 -20 -8 -14 -20 -5 15 15 19
-20 -20 -20 -20 -20 -20 -20 -20 -20 -20 -20 -20 -20 -14 -20 -20 11 5 1 11 20 21
-20 -20 -20 -20 -20 -18 -10 -20 -10 -8 -17 -0 -0 11 6 8 -17 12 -3 17 12 12
-20 -20 -20 -20 -20 -20 -20 -20 -10 -2 -15 -16 11 11 3 19 18 7 14 13 5 9
-20 -20 -19 -20 -20 -20 -20 -20 -20 -20 -20 -12 2 10 3 9 4 19 16 18 17 9
-20 -20 -20 -20 -9 -6 -20 -20 -20 -20 -20 -7 -10 7 15 8 -1 8 14 -2 7 -9
-20 -20 -20 -20 -20 -20 -20 -20 -20 -20 -20 -20 -20 -20 -18 -8 -1 -12 -20 -20 -20 -20

GFSNIL_prec_radar_042.txt.gz
Reflectivity
-20 -20 -20 -20 -20 -20 -20 -20 -20 14 20 20 -20 6 15 22 17 13 12 12 12 13
-20 -20 -20 -20 -20 -20 -20 -20 -20 -20 -20 -15 11 9 15 11 16 23 12 18 11 18
-20 -20 -20 -20 -20 -20 -20 -20 -20 -20 -20 -20 -20 -19 14 7 -5 13 27 22 25 24
-20 -20 -20 -20 -20 -20 -20 -20 -20 -20 -20 -20 -20 6 6 19 11 -6 7 17 14 26
-20 -20 -20 -20 -20 -20 -20 -20 -20 -20 -20 -20 -20 4 -16 -20 -20 -20 -17 12 12 10
-20 -20 -20 -20 -20 -20 -20 -20 -20 -20 -20 -20 -20 -17 -20 -20 -5 4 14 10 6 11
-20 -20 -20 -20 -20 -20 -20 -20 -20 -20 -20 -20 -20 -20 -20 -20 -20 -19 -20 -4 -11 -1
-20 -20 -20 -20 -20 -20 -20 -20 -20 -20 -20 -20 -20 -20 -20 -20 -20 -20 -20 -20 -11 -20
-20 -20 -20 -20 -20 -20 -20 -20 -20 -20 -20 -20 -20 -20 -5 -20 -20 -20 -20 -16 20 22
-20 -20 -20 -20 -20 -20 -20 -20 -20 -20 -20 -20 -2 4 0 -20 -16 -14 -4 12 23 23
-20 -20 -20 -20 -20 -20 -20 -20 -20 -20 -20 -20 6 7 1 -20 -20 -20 14 22 20 12
-20 -20 -20 -20 -20 -20 -20 -20 -20 -20 -20 -20 -17 4 -20 -20 -20 -20 -20 -18 -10 -8
-20 -20 -20 -20 -20 -20 -20 -20 -20 -20 -20 -20 -20 -20 -20 -20 -20 -20 -19 -11 -20 -20
-20 -20 -20 -20 -20 -20 -20 -20 -20 -20 -20 -20 -20 -20 -20 -20 -20 -20 -20 -20 -20 -20

GFSNIL_prec_radar_045.txt.gz
Reflectivity
-20 -20 -20 -20 -20 -20 -20 -20 -20 -20 -20 -20 -20 -20 6 -7 -12 -3 18 22 24 26
-20 -20 -20 -20 -20 -20 -20 -20 -20 -20 -20 -20 -20 -20 -20 -20 -16 14 -9 -2 -11 22
-20 -20 -20 -20 -20 -20 -20 -20 -20 -20 -20 -20 -20 -20 -20 -20 -20 -9 5 -20 -20 -3
-20 -20 -20 -20 -20 -20 -20 -20 -20 -20 -20 -20 -20 -20 -20 -20 -20 -20 -20 -17 -17 4
-20 -20 -20 -20 -20 -20 -20 -20 -20 -20 -20 -20 -20 -20 -20 2 -20 -20 -20 -20 -20 -20
-20 -20 -20 -20 -20 -20 -20 -20 -20 -20 -20 -20 -20 -20 -20 -20 -20 -20 -20 2 1 -19
-20 -20 -20 -20 -20 -20 -20 -20 -20 -20 -20 -20 -20 -20 -20 -20 -20 -20 -20 -20 -2 -4
-20 -20 -20 -20 -20 -20 -20 -20 -20 -20 -20 -20 -20 -20 -20 -20 -20 -20 -20 -20 -20 -20
-20 -20 -20 -20 -20 -20 -20 -20 -20 -20 -20 -20 -20 -20 -20 -20 -20 -20 -20 -20 -20 -20
-20 -20 -20 -20 -20 -20 -14 -20 -20 -20 -20 -20 -20 10 -15 -20 -20 -20 -20 -20 -20 -12
-20 -20 -20 -20 -20 -20 -20 -20 -20 -20 -20 -20 1 6 -13 -20 -20 -20 -20 -20 -20 -20
-20 -20 -20 -20 -20 -20 -20 -20 -20 -20 -20 -20 -20 -20 -20 -20 -20 -20 -20 -20 -20 -20
-20 -20 -20 -20 -20 -20 -20 -20 -20 -20 -20 -20 -20 -20 -20 -20 -20 -20 -20 -20 -20 -20
-20 -20 -20 -20 -20 -20 -20 -20 -20 -20 -20 -20 -20 -20 -20 -20 -20 -20 -20 -20 -20 -20

GFSNIL_prec_radar_048.txt.gz
Reflectivity
-20 -20 -20 -20 -20 -20 -20 -20 -20 -20 -20 -20 -20 -20 -20 -20 -20 -7 6 -20 -20 -18
-20 -20 -20 -20 -20 -20 -20 -20 -20 -20 -20 -20 -20 -20 -20 -20 -20 -20 -19 3 7 -9
-20 -20 -20 -20 -20 -20 -20 -20 -20 -20 -20 -20 -20 -20 -20 -20 -20 -20 -20 -20 -6 -20
-20 -20 -20 -20 -20 -20 -20 -20 -20 -20 -20 -20 -20 -20 -20 -20 -20 -20 -20 -20 -20 -20
-20 -20 -20 -20 -20 -20 -20 -20 -20 -20 -20 -20 -20 -20 -20 -20 -20 -20 -20 4 -20 -20
-20 -20 -20 -20 -20 -20 -20 -20 -20 -20 -20 -20 -20 -20 -20 -20 -20 -20 -20 -20 -20 -13
-20 -20 -20 -20 -20 -20 -20 -20 -20 -20 -20 -20 -20 -20 -20 -20 -20 -20 -20 -20 -20 -20
-20 -20 -20 -20 -20 -20 -20 -20 -20 -20 -20 -20 -20 -20 -20 -20 -20 -20 -20 -20 -20 -20
-20 -20 -20 -20 -20 -20 -20 -20 -20 -20 -20 -20 -20 15 11 -20 -20 -20 -20 -20 -20 -20
-19 -20 -20 -20 -10 -10 -20 -20 -20 -20 -20 -20 -20 2 1 -2 -20 -20 -20 -20 -20 -20
-20 -20 -20 -20 -20 -20 -20 -20 -20 -20 -20 -20 -14 -13 -20 -20 -20 -20 -20 -20 -20 -20
-20 -20 -20 -20 -20 -20 -20 -20 -20 -20 -20 -20 -20 -20 -20 -20 -20 -20 -20 -20 -20 -20
-20 -20 -20 -20 -13 -20 -20 -20 -20 -20 -20 -20 -20 -20 -20 -20 -20 -20 -20 -20 -20 -20
-20 -20 -20 -20 -20 -20 -20 -20 -20 -20 -20 -20 -20 -20 -20 -20 -20 -20 -20 -20 -20 -20

GFSNIL_prec_radar_051.txt.gz
Reflectivity
-20 -20 -20 -20 -20 -20 -20 -20 -20 -20 -20 -20 -20 -20 -20 -20 -20 -20 -20 -20 -20 -20
-20 -20 -20 -20 -20 -20 -20 -20 -20 -20 -20 -20 -20 -20 -20 -20 -20 -17 -16 -20 -20 -13
-20 -20 -20 -20 -20 -20 -20 -20 -20 -20 -20 -20 -20 -20 -20 -20 -20 -14 -3 6 -13 -0
-20 -20 -20 -20 -20 -20 -20 -20 -20 -20 -20 -20 -20 -20 -20 -20 -20 -20 -20 -20 -20 11
-20 -20 -20 -20 -20 -20 -20 -20 -20 -20 -20 -20 -20 -20 -20 -20 -20 -20 -20 -20 -1 -20
-20 -20 -20 -20 -20 -20 -20 -20 -20 -20 -20 -20 -20 -20 -20 -20 -20 -20 -20 -20 -20 -20
-20 -20 -20 -20 -20 -20 -20 -20 -20 -20 -20 -20 -20 -20 -20 -20 -20 -20 -20 -20 -20 -20
-20 -20 -20 -20 -20 -20 -20 -20 -20 -20 -20 -20 -20 -20 -20 -20 -20 -20 -20 -20 -20 -20
-20 -20 -20 -20 -20 -20 -20 -20 -20 -20 -20 -20 4 14 10 3 -20 -20 -20 -20 -20 -20
-20 -20 -20 -20 -20 -20 -20 -20 -20 -20 -20 -20 -19 10 4 -12 -20 -20 -20 -20 -20 -20
-20 -20 -20 -17 -10 -20 -20 -20 -20 -20 -20 -20 -20 -20 -20 -20 -20 -20 -20 -20 -20 -20
-20 -20 -20 -20 -20 -20 -20 -20 -20 -20 -20 -20 -20 -20 -20 -20 -20 -20 -20 -20 -20 -20
-20 -20 -20 -20 -20 -20 -20 -20 -20 -20 -20 -20 -20 -20 -20 -20 -20 -20 -20 -20 -20 -20
-20 -20 -20 -8 -20 -20 -20 -20 -20 -20 -20 -20 -20 -20 -20 -20 -20 -20 -20 -20 -20 -20

GFSNIL_prec_radar_054.txt.gz
Reflectivity
-20 -20 -20 -20 -20 -20 -20 -20 -20 -20 -20 -20 -20 -20 -20 -20 -19 -12 -3 11 13 -18
-20 -20 -20 -20 -20 -20 -20 -20 -20 -20 -20 -20 -20 -20 -20 -20 2 -15 11 2 -17 -3
-20 -20 -20 -20 -20 -20 -20 -20 -20 -20 -20 -20 -20 -20 -20 -20 -20 -20 -20 -20 -18 -5
-20 -20 -20 -20 -20 -20 -20 -20 -20 -20 -20 -20 -20 -20 -20 -20 -20 -20 -19 -20 -20 -20
-20 -20 -20 -20 -20 -20 -20 -20 -20 -20 -20 -20 -20 -20 -20 -20 -20 -20 -20 -20 -20 -20
-20 -20 -20 -20 -20 -20 -20 -20 -20 -20 -20 -20 -20 -20 -20 -20 -20 -20 -20 -20 -20 -20
-20 -20 -20 -20 -20 -20 -20 -20 -20 -20 -20 -20 -20 -20 -20 -20 -20 -20 -20 -20 -20 -20
-20 -20 -20 -20 -20 -20 -20 -20 -20 -20 -20 -20 -20 -20 -20 -20 -20 -20 -20 -20 -20 -20
-20 -20 -20 -20 -20 -20 -20 -20 -20 -20 -5 -20 -20 10 14 4 -20 -20 -20 -20 -20 -20
-20 -20 -20 -20 -20 -20 -20 -20 -20 -20 -18 -17 -10 13 9 -16 -20 -20 -20 -20 -20 -20
-20 -20 -20 -20 -20 -20 -20 -20 -20 -20 -20 -20 -20 -16 -20 -20 -20 -20 -20 -20 -20 -20
-20 -20 -20 -20 -20 -20 -20 -20 -20 -20 -20 -20 -20 -20 -20 -20 -20 -20 -20 -20 -20 -20
-20 -20 -20 -20 -20 -20 -20 -20 -20 -20 -20 -20 -20 -20 -20 -20 -20 -20 -20 -20 -20 -20
-20 -20 -20 -20 -17 -20 -20 -20 -20 -20 -20 -20 -20 -20 -20 -20 -20 -20 -20 -20 -20 -20

GFSNIL_prec_radar_060.txt.gz
Reflectivity
-20 -20 -20 -20 -20 -20 -20 -20 -20 -20 -20 -20 -20 -20 -20 -20 5 2 12 -2 7 2
-20 -20 -20 -20 -20 -20 -20 -20 -20 -20 -20 -20 -20 -20 -20 -8 -0 -20 -20 -20 -2 14
-20 -20 -20 -20 -20 -20 -20 -20 -20 -20 -20 -20 -20 -20 -20 -20 -20 -20 -20 -20 -13 -9
-20 -20 -20 -20 -20 -20 -20 -20 -20 -20 -20 -20 -20 -20 -20 -20 -20 -18 -20 -20 -20 -20
-20 -20 -20 -20 -20 -20 -20 -20 -20 -20 -20 -20 -20 -20 -20 -20 -20 -20 -20 -20 -20 -20
-20 -20 -20 -20 -20 -20 -20 -20 -20 -20 -20 -20 -20 -20 -20 -20 -20 -20 -20 -20 -20 -20
-20 -20 -20 -20 -20 -20 -20 -20 -20 -20 -20 -20 -20 -20 -20 -20 -20 -20 -20 -20 -20 -20
-20 -20 -20 -20 -20 -20 -20 -20 -20 -20 -20 -20 -20 -20 -20 -20 -20 -20 -20 -20 -20 -20
-20 -20 -20 -20 -20 -20 -20 -20 -20 -20 -20 -20 -20 11 5 -1 -17 -20 -20 -20 -20 -20
-20 -20 -20 -20 -20 -20 -20 -20 -20 -20 -12 -5 -2 9 -16 -20 -20 -20 -20 -20 -20 -20
-20 -20 -20 -20 -20 -20 -20 -20 -20 -20 -16 -20 -14 -1 -20 -20 -20 -20 -20 -20 -20 -20
-20 -20 -20 -20 -20 -20 -20 -20 -20 -20 -20 -20 -20 -20 -20 -20 -20 -20 -20 -20 -20 -20
-20 -20 -20 -20 -20 -20 -20 -20 -16 -17 -20 -20 -20 -20 -20 -20 -20 -20 -20 -20 -20 -20
-20 -20 -20 -20 -20 -20 -20 -20 -20 -20 -20 -20 -20 -20 -20 -20 -20 -20 -20 -20 -20 -20

GFSNIL_prec_radar_063.txt.gz
Reflectivity
-20 -20 -20 -20 -20 -20 -20 -20 -20 -20 -20 -20 -20 -20 -20 -20 -20 -4 13 -13 14 11
-20 -20 -20 -20 -20 -20 -20 -20 -20 -20 -20 -20 -20 -20 -20 -20 -15 1 -20 -20 -20 6
-20 -20 -20 -20 -20 -20 -20 -20 -20 -20 -20 -20 -20 -20 -20 -20 -20 -20 -16 -20 1 8
-20 -20 -20 -20 -20 -20 -20 -20 -20 -20 -20 -20 -20 -20 -20 -20 -20 -20 -20 -13 2 -6
-20 -20 -20 -20 -20 -20 -20 -20 -20 -20 -20 -20 -20 -20 -20 -20 -20 -20 -20 -20 -20 -20
-20 -20 -20 -20 -20 -20 -20 -20 -20 -20 -20 -20 -20 -20 -20 -20 -20 -20 -20 -20 -20 -20
-20 -20 -20 -20 -20 -20 -20 -20 -20 -20 -20 -20 -20 -20 -20 -20 -20 -20 -20 -20 -20 -20
-17 -20 -20 -20 -20 -20 -20 -20 -20 -20 -20 -20 -20 -20 -20 -20 -20 -20 -20 -20 -20 -20
-20 -20 -20 -20 -20 -20 -20 -20 -20 -20 -20 -20 -20 -20 6 7 -20 -20 -20 -20 -20 -20
-20 -20 -20 -20 -20 -20 -20 -20 -20 -20 -20 -20 -20 10 8 9 -20 -20 -20 -20 -20 -20
-20 -20 -20 -20 -20 -20 -20 -20 -20 -20 -20 -20 -18 12 -20 -20 -20 -20 -19 -20 -20 -20
-20 -20 -20 -20 -20 -20 -20 -20 -20 -20 -20 -20 -20 -20 -20 -20 -20 -20 -20 -20 -20 -20
-20 -20 -20 -20 -20 -20 -20 -20 -20 -20 -20 -20 -20 -20 -20 -20 -20 -20 -20 -20 -20 -20
-20 -20 -20 -20 -20 -20 -20 -20 -20 -20 -20 -20 -20 -20 -20 -20 -20 -20 -20 -20 -20 -20

GFSNIL_prec_radar_069.txt.gz
Reflectivity
-20 -20 11 -17 8 -20 -20 -20 10 3 -17 -20 -20 -20 -20 -20 -20 -20 -20 -20 -20 -20
-16 -20 -20 -19 -3 -15 -5 -12 -15 9 -0 -20 -17 -20 -20 -20 -20 -20 -20 -20 -20 -20
1 22 25 25 4 -20 -12 -12 -20 -20 -20 -15 -18 -20 -20 -20 -20 -20 -20 -20 -20 -20
-15 -0 -20 -20 -20 -20 -20 -20 -20 -17 -17 -20 -20 -20 -20 -20 -20 -20 -20 -20 -20 -20
-20 -20 -20 -12 -20 -20 -20 -20 -20 -9 -20 -20 -20 -20 -20 -20 -20 -20 -20 -20 -20 -20
-20 -20 -20 -20 -12 -20 -20 -20 -20 -20 -20 -20 -20 -20 -20 -20 -20 -20 -20 -20 -20 -20
-20 -20 -20 -20 -20 -17 -20 -20 -20 -20 -20 -20 -20 -20 -20 -20 -20 -20 -20 -20 -20 -20
-20 -20 -20 -20 -20 -20 -20 -20 -20 -20 -20 -20 -20 -20 -20 -20 -20 -20 -20 -20 -20 -20
-20 -20 -20 -20 -20 -20 -20 -20 -20 -20 -20 -20 -20 6 5 4 -20 -20 -20 -20 -20 -20
-20 -20 -20 -20 -20 -20 -20 -20 -20 -20 -20 -20 -20 12 12 11 -20 -20 -20 -20 -20 -20
-20 -20 -20 -20 -20 -20 -20 -20 -20 -20 -20 -20 -18 9 9 12 5 4 -14 -20 -20 -20
-20 -20 -20 -20 -20 -20 -20 -20 -20 -20 -20 -20 -19 10 5 6 -20 -20 -20 -20 -20 -20
-20 -20 -20 -20 -20 -20 -20 -20 -20 -20 -20 4 -16 3 -20 -20 -20 -20 -20 -20 -20 -20
-20 -20 -20 -20 -20 -20 -20 -20 -20 -20 -7 2 -15 -20 -20 -20 -20 -20 -20 1 -18 -20

GFSNIL_prec_radar_072.txt.gz
Reflectivity
-20 -20 -19 7 14 26 21 16 15 16 5 -16 -20 -19 -20 -20 -20 -20 -20 -20 -20 -20
-20 -20 -20 -2 18 18 10 -8 -15 -7 23 -10 -20 -20 -20 -20 -20 -20 -20 -20 -20 -20
-20 -20 -20 15 21 19 22 10 16 20 -7 -20 -20 -20 -20 -20 -20 -20 -20 -20 -20 -20
-20 -20 -20 -20 -20 -20 -14 -20 -20 -20 -20 -20 -20 -20 -20 -20 -20 -20 -20 -20 -20 -20
-20 -20 -20 -20 -20 -20 -20 -20 -16 -20 -20 -20 -20 -20 -20 -20 -20 -20 -20 -20 -20 -20
-20 -20 -20 -20 -20 -20 -20 -20 -20 -20 -20 -20 -20 -20 -20 -20 -20 -20 -20 -20 -20 -20
-20 -20 -20 -20 -20 -20 -20 -20 -20 -20 -20 -20 -20 -20 -20 -20 -20 -20 -20 -20 -20 -20
-20 -20 -20 -20 -20 -20 -20 -20 -20 -20 -20 -20 -20 -20 -20 -20 -20 -20 -20 -20 -20 -20
-20 -20 -20 -20 -20 -20 -20 -20 -20 -20 -20 -20 -20 -20 -4 4 -20 -20 -20 -20 -20 -15
-20 -20 -20 -20 -20 -20 -20 -20 -20 -20 -20 -20 -20 -19 -2 7 -20 -20 -20 -6 1 3
-20 -20 -20 -20 -20 -20 -20 -20 -20 -20 -20 -20 -20 -11 8 9 -20 -20 -20 0 9 -20
-20 -20 -20 -20 -20 -20 -20 -20 -20 -20 -20 -20 -20 -20 1 -6 -20 -20 -5 3 -20 -20
-20 -20 -20 -20 -20 -20 -20 -20 -20 -20 -20 -20 -20 -10 0 -12 -20 -20 -20 -20 -20 -20
-20 -20 -20 -20 -20 -20 -20 -20 -20 -20 -20 -20 -10 3 2 -20 -20 -20 -20 -20 -20 -20

GFSNIL_prec_radar_075.txt.gz
Reflectivity
-18 12 24 10 21 -14 -14 10 17 24 -3 6 15 12 -0 -20 -20 -20 -20 -20 -20 -20
-20 22 -20 -20 23 7 -20 -20 13 -14 -15 -8 -18 -17 -20 -20 -20 -20 -20 -20 -20 -20
-20 -20 -20 -20 -1 3 -20 -12 8 1 2 1 16 -12 -11 -20 -20 -20 -20 -20 -20 -20
-20 -20 -20 -20 -20 -20 -20 -20 -20 -20 -16 -20 -20 -20 -20 -20 -20 -20 -20 -20 -20 -20
-20 -20 -20 -20 -20 -20 -20 -19 -20 -20 -20 -20 -20 -20 -20 -20 -20 -20 -20 -20 -20 -20
-20 -20 -20 -20 -20 -20 -20 -20 -20 -20 -20 -20 -20 -20 -20 -20 -20 -20 -20 -20 -20 -20
-20 -20 -20 -20 -20 -20 -20 -20 -20 -20 -20 -20 -20 -20 -20 -20 -20 -20 -20 -20 -20 -20
-20 -20 -20 -20 -20 -20 -20 -20 -20 -20 -20 -20 -20 -20 -20 -20 -20 -20 -20 -20 -20 -20
-20 -20 -20 -20 -20 -20 -20 -20 -20 -20 -20 -20 -20 -20 -20 -20 -20 -20 -20 -20 -20 8
-20 -20 -20 -20 -20 -20 -20 -20 -20 -20 -20 -20 -20 -20 -20 -20 -20 -18 1 11 -9 -20
-20 -20 -20 -20 -20 -20 -20 -20 -20 -20 -20 -20 -20 -20 -12 -18 -20 -19 18 7 -12 7
-20 -20 -20 -20 -20 -20 -20 -20 -20 -20 -20 -20 -20 -20 -20 -20 -20 -20 -20 -20 -2 5
-20 -20 -20 -20 -20 -20 -20 -20 -20 -20 -20 -20 -20 -20 -5 -13 -20 -20 -20 -9 8 -8
-20 -20 -20 -20 -20 -20 -20 -20 -20 -20 -20 -20 -20 -20 -13 -18 -18 -20 -20 -20 -20 -20

GFSNIL_prec_radar_078.txt.gz
Reflectivity
-17 -3 -12 -20 -14 24 6 32 8 29 15 -17 -8 -3 17 9 2 -20 -17 -20 -20 -20
-20 -20 -18 -20 -20 11 25 19 26 16 -0 -20 -6 -1 -20 -15 -20 -20 -20 -20 -20 -20
-16 -20 -20 -20 -20 -16 -14 12 -20 -20 -20 -15 -15 -19 -20 -20 -20 -20 -20 -20 -20 -20
-20 -2 -13 -14 -19 -15 -2 19 2 -8 -20 -15 -20 -18 -17 -20 -20 -20 -20 -20 -20 -20
-20 -20 -20 -20 -19 -19 -20 -14 -13 -20 -20 -15 -20 -20 -20 -20 -20 -20 -20 -20 -20 -20
-20 -20 -20 -20 -20 -20 -20 -20 -20 -20 -20 -20 -20 -20 -20 -20 -20 -20 -20 -20 -20 -20
-20 -20 -20 -20 -20 -20 -20 -20 -20 -20 -20 -20 -20 -20 -20 -20 -20 -20 -20 -20 -20 -20
-20 -20 -20 -20 -20 -20 -20 -20 -20 -20 -20 -20 -20 -20 -20 -20 -20 -20 -20 -20 -20 -20
-20 -20 -20 -20 -20 -20 -20 -20 -20 -20 -20 -20 -20 -20 -20 -20 -20 -20 -20 -20 -20 -20
-20 -20 -20 -20 -20 -20 -20 -20 -20 -20 -20 -20 -20 -20 -20 -20 -20 -20 -20 -20 -2 -12
-20 -20 -20 -20 -20 -20 -20 -20 -20 -20 -20 -20 -20 -20 -20 -7 -20 -20 -20 -12 4 2
-20 -20 -20 -20 -20 -20 -20 -20 -20 -20 -20 -20 -20 -20 -20 -19 -20 -20 -20 -20 -20 -20
-20 -20 -20 -20 -20 -20 -20 -20 -20 -20 -20 -20 -20 -20 -2 -11 -20 -20 -20 -20 -20 12
-20 -20 -20 -20 -20 -20 -20 -20 -20 -20 -20 -20 -20 -20 -12 -5 -20 -20 -20 -20 -20 -0

GFSNIL_prec_radar_081.txt.gz
Reflectivity
8 -2 -13 19 27 6 9 29 15 -19 0 23 29 20 25 17 17 10 5 -11 -20 -20
3 -2 -11 -16 -20 -8 24 -6 12 28 15 26 24 -18 2 11 -1 -5 -6 4 -10 -20
-20 -12 -20 -19 -20 -20 -20 -20 -16 -20 5 -12 -12 -16 -20 -17 -19 -20 -20 -20 -20 -18
-20 -17 -18 -18 -20 -20 -20 -20 -20 -20 -20 -14 -5 -18 -14 -18 -18 -20 -18 -20 -20 -20
-20 -20 -18 -20 -20 -20 -20 -20 -20 -20 -20 -20 -20 -6 -9 -16 -20 -20 -20 -20 -20 -20
-20 -20 -20 -20 -20 -20 -20 -20 -20 -20 -20 -20 -20 -20 -20 -20 -20 -20 -20 -20 -20 -20
-20 -20 -20 -20 -20 -20 -20 -20 -20 -20 -20 -20 -20 -20 -20 -20 -20 -20 -20 -20 -20 -20
-20 -20 -20 -20 -20 -20 -20 -20 -20 -20 -20 -20 -20 -20 -20 -20 -20 -20 -20 -20 -20 -20
-20 -20 -20 -20 -20 -20 -20 -20 -20 -20 -20 -20 -20 -20 -20 -20 -20 -20 -20 -20 -20 -20
-20 -20 -20 -20 -20 -20 -20 -20 -20 -20 -20 -20 -20 -20 -20 -20 -20 -20 -20 -20 -20 -20
-20 -20 -20 -20 -20 -20 -20 -20 -20 -20 -20 -20 -20 -20 -20 -20 -20 -20 -20 -20 -20 -20
-20 -20 -20 -20 -20 -20 -20 -20 -20 -20 -20 -20 -20 -20 -20 -20 -20 -20 -20 -20 -20 -20
-20 -20 -20 -20 -20 -20 -20 -20 -20 -20 -20 -20 -20 -20 -20 -2 -20 -20 -20 -20 -20 -20
-20 -20 -20 -20 -20 -20 -20 -20 -20 -20 -20 -20 -20 -20 -20 11 -20 -20 -20 -20 -20 -20

GFSNIL_prec_radar_084.txt.gz
Reflectivity
16 15 11 5 11 15 14 13 26 25 28 31 26 21 13 18 12 21 12 18 14 9
17 4 -17 -6 -6 -2 8 -3 2 19 13 30 31 17 -17 3 0 4 7 13 -0 -5
-15 -20 -20 -20 -20 -19 -11 -9 -8 9 -11 14 -13 20 -5 5 -7 -10 -13 -6 -5 -9
-20 -20 -20 -20 -20 -19 -15 -20 -18 -20 3 -20 -20 -20 -20 -20 -20 -19 -17 -13 -20 -20
-20 -20 -20 -20 -20 -20 -20 -20 -20 -20 -19 -19 -20 -20 -20 13 -19 -19 -4 -14 -18 -20
-20 -20 -20 -20 -20 -20 -19 -17 -16 -20 -20 -20 -20 -20 -20 -20 -20 -20 -14 -20 -20 -20
-20 -20 -20 -20 -20 -20 -20 -20 -19 -20 -20 -20 -20 -20 -20 -20 -20 -20 -20 -20 -20 -20
-20 -20 -20 -20 -20 -20 -20 -20 -20 -20 -20 -20 -20 -20 -20 -20 -20 -20 -20 -20 -20 -20
-20 -20 -20 -20 -20 -20 -20 -20 -20 -20 -20 -20 -20 -20 -20 -20 -20 -20 -20 -20 -20 -20
-20 -20 -20 -20 -20 -20 -20 -20 -20 -20 -20 -20 -20 -20 -20 -20 -20 -20 -20 -20 -20 -20
-20 -20 -20 -20 -20 -20 -20 -20 -20 -20 -20 -20 -20 -20 -20 -20 -20 -20 -20 -20 -20 -20
-20 -20 -20 -20 -20 -20 -20 -20 -20 -20 -20 -20 -20 -20 -20 -20 -20 -20 -20 -20 -20 -20
-20 -20 -20 -20 -20 -20 -20 -20 -20 -20 -20 -20 -20 -20 -20 -20 -20 -20 -20 -20 -20 -20
-20 -20 -20 -20 -20 -20 -20 -20 -20 -20 -20 -20 -20 -20 -20 -20 -20 -20 -20 -20 -20 -20

GFSNIL_prec_radar_087.txt.gz
Reflectivity
31 19 15 27 21 11 11 16 3 9 19 29 32 30 30 33 28 16 22 17 18 18
17 29 30 19 10 2 7 8 8 -5 6 20 17 31 34 28 25 4 8 10 14 13
0 5 16 17 6 5 -4 3 34 37 18 7 1 4 23 24 18 17 19 5 -7 -2
-1 -20 -15 -9 -19 -7 -17 -20 -20 -1 7 2 6 7 5 19 18 -20 -20 -20 -20 -20
-12 -20 -20 -20 -20 -19 -20 -20 -20 -7 6 14 21 3 -12 27 -20 -20 -20 -20 -20 -20
-20 -20 -20 -20 -20 -20 -20 -20 -20 -20 -20 -20 -15 -4 -20 -20 -20 -20 -20 -20 -20 -20
-20 -20 -20 -20 -20 -20 -20 -20 -20 -20 -20 -20 -20 -13 -10 -20 -20 -20 -20 -20 -20 -20
-20 -20 -20 -20 -20 -20 -20 -20 -20 -20 -20 -20 -20 -20 -20 -20 -20 -20 -13 -20 -20 -20
-20 -20 -20 -20 -20 -20 -20 -20 -20 -20 -20 -20 -20 -20 -3 -13 -20 -20 -20 -20 -20 -20
-20 -20 -20 -20 -20 -20 -20 -20 -20 -20 -20 -20 -20 -20 -20 -20 -20 -20 -20 -20 -20 -20
-20 -20 -20 -20 -20 -20 -20 -20 -20 -20 -20 -20 -20 -20 -20 -20 -20 -20 -20 -20 -20 -20
-20 -20 -20 -20 -20 -20 -20 -20 -20 -20 -20 -20 -20 -20 -20 -20 -20 -20 -20 -20 -20 -20
-20 -20 -20 -20 -20 -20 -20 -20 -20 -20 -20 -20 -20 -20 -20 -20 -20 -20 -20 -20 -20 -20
-20 -20 -20 -20 -20 -20 -20 -20 -20 -20 -20 -20 -20 -20 -20 -20 -20 -20 -20 -20 -20 -20

GFSNIL_prec_radar_090.txt.gz
Reflectivity
37 35 31 34 38 37 34 24 28 26 4 4 3 18 13 -18 16 23 30 28 22 31
32 24 34 33 25 13 -11 -11 3 18 -4 5 7 -11 28 29 21 34 32 19 11 16
15 21 22 15 24 5 24 19 5 32 26 24 31 11 15 29 30 28 25 7 5 -10
13 16 11 -6 -0 20 22 23 20 13 26 14 2 2 19 12 22 16 28 13 -17 4
3 4 6 -5 -11 -14 -20 -20 -20 -9 -6 1 3 -11 4 5 24 8 -2 21 10 6
1 2 -14 -15 -20 -20 -20 -20 -20 -20 -20 -20 -8 4 -12 17 4 -9 -15 -20 -20 -20
-9 -17 -20 -20 -20 -20 -20 -20 -20 -20 -20 -20 -11 8 5 -1 20 1 -19 -20 -20 -0
-20 -20 -20 -20 -20 -20 -20 -20 -20 -20 -20 -20 -20 -16 -17 4 10 -20 -20 11 -5 15
-20 -20 -20 -20 -20 -20 -20 -20 -20 -20 -20 -20 -20 -20 4 1 10 14 6 6 -12 -0
-20 -20 -20 -20 -20 -20 -20 -20 -20 -20 -20 -20 -20 -20 -20 -13 -8 10 19 10 -5 -20
-20 -20 -20 -20 -20 -20 -20 -20 -20 -20 -20 -20 -20 -20 -20 -20 -20 -20 -20 -20 -20 -20
-20 -20 -20 -20 -20 -20 -20 -20 -20 -16 -20 -20 -20 -20 -20 -20 -20 -20 -20 -20 -20 -20
-20 -20 -20 -20 -20 -20 9 5 -17 -20 2 7 -20 -20 -20 -20 -20 -20 -20 -20 -20 -12
-20 -20 -20 -20 -20 -20 -19 4 -20 -17 1 8 -10 -12 -11 -19 -20 -20 -20 -20 -20 -20

GFSNIL_prec_radar_093.txt.gz
Reflectivity
29 25 28 27 32 34 36 28 15 28 14 2 18 22 28 24 -2 -20 -20 3 -13 -20
36 32 31 37 31 24 34 29 19 31 31 24 14 -6 24 1 -10 -9 15 16 18 -6
34 28 28 16 17 2 6 26 30 29 22 12 23 23 28 9 19 -6 22 29 32 30
29 19 12 10 8 18 26 31 29 30 37 37 32 31 29 29 6 24 16 23 20 28
8 10 11 12 10 7 -11 -20 -19 -3 -2 -7 0 5 24 0 -1 -11 3 12 17 18
-10 -2 -8 -17 -18 -19 -13 0 -17 -20 -20 -9 -7 -1 5 -11 -4 -1 -13 17 16 16
-20 -20 -19 -17 -20 -20 -20 -20 -10 -15 -20 -20 -15 -13 -20 -15 -2 22 18 13 9 24
-20 -20 -20 -20 -20 -20 -20 -20 -20 -20 -20 -20 -20 -20 -20 -20 -19 -2 9 15 14 7
-20 -20 -20 -20 -20 -20 -20 -20 -20 -20 -20 -20 -20 -20 -20 -5 -20 -20 -20 -20 -6 -5
-20 -20 -20 -20 -20 -20 -20 -20 -20 -20 -20 -20 -20 -20 -20 -20 -20 -20 -20 -20 -19 -11
-20 -20 -20 -20 -20 -20 -20 -20 -20 -20 -20 -20 -20 -20 -20 -20 -20 -20 -20 -10 -9 1
-20 -20 -20 -20 -20 -20 -20 -20 -20 -20 -20 -20 -6 12 -20 -20 -20 -20 -20 -20 -20 -20
-20 -20 -20 -20 -20 -20 -20 -20 -20 -20 -20 2 -20 15 9 3 -20 -20 -20 -20 -20 -20
-20 -20 -20 -20 -20 -20 -20 -20 -20 -20 -16 -20 -20 -10 13 2 2 -11 -20 -20 -20 -20

GFSNIL_prec_radar_096.txt.gz
Reflectivity
-1 -5 18 37 35 26 31 32 33 34 29 28 32 35 35 33 28 17 18 30 33 31
9 21 22 31 33 22 27 31 34 32 32 26 33 32 31 30 32 29 25 23 25 17
28 26 32 27 29 30 29 36 36 27 26 27 29 31 31 23 22 23 21 10 21 7
31 35 31 29 23 15 17 20 31 32 32 32 33 31 27 24 31 28 27 32 1 -2
17 26 16 11 5 -4 -15 8 8 9 15 14 15 30 34 34 27 18 22 31 32 25
5 8 10 5 3 -8 -20 -20 -9 7 10 3 -4 9 3 20 20 -1 -13 6 -20 -9
-20 -20 -7 -4 4 1 -4 -16 -14 -12 -11 -17 0 4 1 -0 -1 6 12 12 11 6
-20 -20 -20 -20 -20 -20 -20 -20 -20 -20 -20 -20 -20 -20 -5 -0 6 6 -0 0 -6 -1
-20 -20 -20 -20 -20 -20 -20 -20 -20 -20 -20 -20 -20 -20 -20 -20 -20 -20 -20 -20 -1 12
-20 -20 -20 -20 -20 -20 -20 -20 -20 -20 -20 -20 -20 -20 -20 -20 -20 -20 -20 -20 -20 -3
-20 -20 -20 -20 -20 -20 -20 -20 -20 -20 -20 -20 -20 -20 -5 3 -20 -20 -20 -20 -20 -19
-20 -20 -20 -20 -20 -20 -20 -20 -20 -20 -20 -20 -20 -20 -20 -8 -20 -20 -20 -20 -20 -20
-20 -20 -20 -20 -20 -20 -20 -20 -20 -20 -20 -20 -20 4 -13 5 -19 -20 -20 -20 -20 -20
-20 -20 -20 -20 -20 -20 -20 -20 -20 -20 -20 -20 -20 -15 5 1 1 8 -0 -19 4 -17

GFSNIL_prec_radar_099.txt.gz
Reflectivity
-11 11 -2 13 -8 0 22 13 18 21 25 23 30 35 35 20 18 26 26 25 23 18
20 19 24 13 8 18 12 20 31 28 32 28 32 36 35 31 30 31 27 29 25 18
24 23 23 14 13 14 17 17 17 27 30 34 34 35 37 34 29 32 34 34 33 23
20 24 20 23 23 30 28 23 23 26 34 33 33 30 30 32 33 37 31 34 34 17
11 17 32 25 1 -10 -14 -18 12 25 31 30 29 30 31 31 29 29 34 32 29 24
1 -7 -12 9 14 -8 -2 -19 -20 -20 -5 10 14 14 5 16 25 26 17 10 19 27
-20 -11 -13 -2 1 -10 -0 -3 -19 -20 -20 -18 -19 -11 -6 2 8 9 11 16 23 16
-18 -18 -20 -18 0 4 -16 -18 -17 -0 -13 -20 -20 -19 -12 -2 -2 5 6 9 9 14
-20 -20 -20 -20 -20 -20 -20 -20 -10 -19 -20 -20 -20 -20 -20 -20 -20 -19 -7 -14 -20 -10
-20 -20 -20 -20 -20 -20 -20 -20 -20 -20 -20 -20 -20 -20 -20 -20 -20 -20 -20 -20 -20 -20
-20 -20 -20 -20 -20 -20 -20 -20 -20 -20 -20 -20 -20 -20 -20 -20 -20 -20 -20 -20 -20 -20
-20 -20 -20 -20 -20 -20 -20 -20 -20 -20 -20 -20 -20 -20 -20 -17 -20 -20 -20 -20 -20 -20
-20 -20 -20 -20 -20 -20 -20 -20 -20 -20 -20 -20 -20 -20 -20 -20 -7 -4 -19 -20 -20 -13
-20 -20 -20 -20 -20 -20 -20 -20 -20 -20 -20 -20 -20 -20 -20 -20 1 9 9 -10 -20 -20

GFSNIL_prec_radar_102.txt.gz
Reflectivity
-20 -20 -16 7 9 9 -1 18 -5 -11 -5 5 9 18 20 37 29 25 24 25 3 -6
-5 -5 9 20 13 28 -3 1 4 14 -11 24 33 27 24 31 30 29 30 19 -1 1
-7 17 7 19 27 25 20 22 25 11 9 17 26 28 33 35 36 31 24 25 20 17
11 11 22 22 24 26 22 19 16 16 30 30 19 27 33 25 23 30 38 34 24 25
23 26 17 24 24 -9 -14 -17 6 14 18 17 30 22 26 27 13 29 29 29 25 22
25 18 14 12 8 6 15 -9 3 1 5 -7 5 9 8 23 23 25 18 35 32 24
-3 -8 -12 -7 3 -17 -14 -0 -16 -20 -20 -20 -20 -6 -9 -19 -10 3 11 18 24 20
3 7 -7 -10 -12 -20 -20 -20 -18 -14 -16 -20 -20 -20 -20 -20 -20 -8 -1 -10 -8 0
-20 -20 -20 -20 -20 -20 -20 -20 -20 -20 -20 -20 -14 -19 -18 -20 -20 -20 -20 -8 -2 -8
-20 -20 -20 -20 -20 -20 -20 -20 -20 -20 -20 -20 -20 -20 -20 -20 -20 -20 -20 -20 -20 -20
-20 -20 -20 -20 -20 -20 -20 -20 -20 -20 -20 -20 -20 -20 -20 -20 -20 -20 -20 -20 -20 -20
-20 -20 -20 -20 -20 -20 -20 -20 -20 -20 -20 -20 -20 -20 -20 -20 -20 -20 -20 -20 -20 -20
-20 -20 -20 -20 -20 -20 -20 -20 -20 -20 -20 -20 -20 -20 -20 -20 -20 -20 -20 -20 -19 13
-20 -20 -20 -20 -20 -20 -20 -20 -20 -20 -20 -20 -20 -20 -20 -20 -20 -20 -20 -17 -8 -6

GFSNIL_prec_radar_105.txt.gz
Reflectivity
-20 -18 -8 -17 -19 -12 17 -3 -3 -20 16 15 14 15 3 18 -1 6 -2 13 22 20
-19 4 -5 0 12 14 13 -6 24 14 0 -20 -1 -4 27 30 16 14 10 25 32 31
-20 -19 -5 9 12 -1 11 8 22 4 -8 22 19 20 16 6 14 17 36 25 20 25
8 -20 -20 -5 16 21 4 26 23 24 18 19 21 18 26 14 10 3 18 22 37 35
5 2 -5 -14 16 21 27 -9 3 -5 -19 -13 -1 3 4 22 -13 4 16 27 25 29
1 6 6 7 5 14 18 4 -6 5 -13 -20 -5 -4 16 14 16 15 10 23 27 19
19 15 6 7 9 7 4 -6 -0 -20 -0 -6 -20 -20 -20 -20 -14 -8 0 11 5 3
9 -19 14 10 0 -3 -11 -10 -20 -17 -12 -7 -20 -18 -17 -20 -20 -20 -20 -14 -15 -12
-4 -20 -20 -20 -16 -7 -20 -20 -7 -16 -19 -20 -20 -20 -20 -20 -20 -20 -20 -20 -20 -20
-20 -20 -20 -20 -20 -20 -20 -20 -20 -20 -20 -20 -20 -20 -20 -20 -20 -20 -20 -20 -20 -20
-20 -20 -20 -20 -20 -20 -20 -20 -20 -20 -20 -20 -20 -20 -20 -20 -20 -20 -20 -20 -20 -20
-20 -20 -20 -20 -20 -20 -20 -20 -20 -20 -20 -20 -20 -20 -20 -20 -20 -20 -20 -20 -20 -20
-20 -20 -20 -20 -20 -20 -20 -20 -20 -20 -20 -20 -20 -20 -20 -20 -20 -20 -20 -20 -20 -20
-20 -20 -20 -20 -20 -20 -20 -20 -20 -20 -20 -20 -20 -20 -20 -20 -20 -20 -20 -20 -20 -20

GFSNIL_prec_radar_108.txt.gz
Reflectivity
20 7 -20 -20 -20 -17 -12 -20 -20 -12 -17 -3 11 4 7 17 11 11 8 6 4 9
-20 -20 -20 -20 -20 -17 4 5 2 -15 -20 -4 8 0 -5 -20 -17 17 27 25 8 29
-20 -0 -16 -20 -14 -5 4 6 3 5 -4 8 5 -5 13 -17 8 -7 -4 19 29 30
14 7 0 -2 -14 -9 22 19 12 9 16 6 16 9 10 10 14 8 11 13 -3 8
5 3 11 -8 -8 -19 -10 19 26 14 16 18 27 30 -12 15 23 1 24 16 16 12
-9 11 16 1 -2 -10 -20 -20 2 14 -6 -12 -17 -19 -16 -20 -18 -11 -7 0 9 20
9 15 11 21 13 11 5 5 1 6 9 -8 -17 -16 -19 -20 -19 -18 -20 -12 6 8
-14 -16 5 -14 -12 -15 -16 -20 -20 -20 -20 -20 -20 -20 -20 -20 -14 -20 -20 -20 -11 -20
-20 -20 -20 -20 -18 -17 -20 -7 -15 -20 -20 -20 -15 -16 -20 -20 -20 -20 -20 -20 -20 -20
-20 -20 -20 -20 -20 -20 -20 -20 -20 -20 -20 -20 -20 -20 -20 -20 -20 -20 -20 -20 -20 -20
-20 -20 -20 -20 -20 -20 -20 -20 -20 -20 -20 -20 -20 -20 -20 -20 -20 -20 -20 -20 -20 -20
-20 -20 -20 -20 -20 -20 -20 -20 -20 -20 -20 -20 -20 -20 -20 -20 -20 -20 -20 -20 -20 -20
-20 -20 -20 -20 -20 -20 -20 -20 -20 -20 -20 -20 -20 -20 -20 -20 -20 -20 -20 -20 -20 -20
-20 -20 -20 -20 -20 -20 -20 -20 -20 -20 -20 -20 -20 -20 -20 -20 -20 -20 -20 -20 -20 -20

GFSNIL_prec_radar_111.txt.gz
Reflectivity
30 24 34 38 5 -19 -20 -20 -10 -7 -3 -13 -20 -20 12 5 14 7 -3 16 24 17
28 28 27 18 -1 -20 -19 -12 8 -6 13 3 -20 -7 14 -12 22 10 12 14 16 7
-20 -20 -20 -20 -20 -20 -20 -15 2 1 -17 -7 -7 -17 10 11 -20 6 21 -7 16 -3
5 4 5 -6 -20 -18 11 12 10 18 -3 -12 -13 9 4 -9 -16 6 -20 12 8 20
-19 -19 -20 -19 -10 -12 -20 -20 -19 -15 -8 -11 23 -9 16 13 24 8 11 18 23 13
-16 -15 -20 -20 -9 -20 -20 -20 -20 -20 -20 -20 -17 -20 -20 6 -2 17 6 -6 -9 9
-20 -20 -20 -20 -20 -18 -7 -8 -5 -14 -18 -19 -5 -2 -10 -18 -20 -20 -20 -20 -20 -20
-20 -20 -20 -20 -20 -19 -20 -20 -20 -20 -20 -20 -20 -20 -20 -20 -20 -20 -20 -20 -20 -5
-20 -20 -20 -20 -20 -20 -20 -20 -20 -20 -20 -20 -20 -20 -20 -20 -20 -20 -20 -20 -20 -20
-20 -20 -20 -20 -20 -20 -20 -20 -20 -20 -20 -20 -20 -20 -20 -20 -20 -20 -20 -20 -20 -20
-20 -20 -20 -20 -20 -20 -20 -20 -20 -20 -20 -20 -20 -20 -20 -20 -20 -20 -20 -20 -20 -20
-20 -20 -20 -20 -20 -20 -20 -20 -20 -20 -20 -20 -20 -20 -20 -20 -20 -20 -20 -20 -20 -20
-20 -20 -20 -20 -20 -20 -20 -20 -20 -20 -20 -20 -20 -20 -20 -19 -20 -20 -20 -20 -20 -20
-20 -20 -20 -20 -20 -20 -20 -20 -20 -20 -20 -20 -20 -20 -20 -20 -14 -20 -20 -20 -20 -20

GFSNIL_prec_radar_114.txt.gz
Reflectivity
15 34 32 3 13 29 42 38 37 21 -14 -20 -19 -15 -20 -20 -16 -17 -6 16 9 -7
11 18 12 -3 18 32 36 12 17 -4 -20 -20 -20 4 -14 -20 -1 -0 13 -7 7 10
15 3 3 -6 7 8 -2 -5 -20 -20 -20 -17 1 -18 -20 -20 -16 -20 15 -19 1 24
5 0 -15 -20 -20 -20 -20 -20 -20 -20 -17 -1 -4 11 11 9 3 10 11 4 9 -17
4 -5 -13 -12 -20 -20 -20 -20 -20 -20 -20 -20 -19 -20 -19 -19 -11 11 -4 11 8 19
-20 -19 -19 -20 -20 -20 -20 -6 -4 -14 -20 -20 -20 -20 -20 -20 -13 -9 -20 -19 10 28
-20 -20 -20 -20 -20 -20 -20 -20 -20 -20 -20 -20 -17 -17 -7 -1 13 13 -3 -14 -9 3
-20 -20 -20 -20 -20 -20 -19 -20 -20 -20 5 11 13 -3 7 1 -10 -13 -7 -16 -6 0
-20 -20 -20 -20 -20 -20 -20 -20 -20 -20 -20 -20 -20 -20 -20 -20 -20 -13 -20 -12 -20 -20
-20 -20 -20 -20 -20 -20 -20 -20 -20 -20 -20 -20 -20 -20 -20 -20 -20 -20 -20 -20 -20 -20
-20 -20 -20 -20 -20 -20 -20 -20 -20 -20 -20 -20 -20 -20 -20 -20 -20 -20 -20 -20 -20 -20
-20 -18 -20 -20 -20 -20 -20 -20 -20 -20 -20 -20 -20 -20 -20 -20 -20 -20 -20 -20 -20 -20
-20 -20 -20 -20 -20 -20 -20 -20 -20 -20 -20 -20 -20 -20 -20 -20 -6 -7 -15 -20 -20 -20
-20 -20 -20 -20 -20 -20 -20 -20 -20 -20 -20 -20 -20 -20 -20 -20 -20 -14 -20 -20 -20 -20

GFSNIL_prec_radar_117.txt.gz
Reflectivity
9 -20 25 21 26 -9 2 11 17 18 32 33 43 39 32 20 7 -20 -20 -20 -19 -20
5 -10 -2 31 24 -9 -20 5 24 32 33 37 33 23 9 -3 -20 -20 -20 -20 1 11
1 -8 15 -19 -20 -17 -20 11 0 -8 -5 7 11 -5 -20 -20 -20 -20 -20 -20 -20 -17
-20 -10 -5 -18 -20 -20 -20 -20 -16 -18 -17 -20 -20 -20 -20 -20 -20 -15 -19 -14 -20 -12
-20 -20 -20 -20 -20 -20 -20 -20 -20 -20 -20 -20 -20 -20 -20 -20 -20 -20 -19 -19 -20 -19
-20 -20 -20 -20 -20 -20 -20 -20 -20 -20 -20 -20 -20 -20 -20 -20 -20 -20 -20 -20 -20 -18
-20 -20 -20 -20 -20 -20 -20 -20 -20 -20 -20 -20 -20 -20 -20 -20 -20 -20 -20 -20 -20 -11
-20 -20 -20 -20 -20 -20 -20 -20 -20 -20 -20 -20 -20 -20 -20 -20 -20 -20 -20 -11 -3 -11
-20 -20 -20 -20 -20 -20 -20 -20 -20 -20 -20 -20 -20 -20 -20 -20 -20 -20 -20 -20 -20 -20
-20 -20 -20 -20 -20 -20 -20 -20 -20 -20 -20 -20 -20 -20 -20 -20 -20 -20 -20 -20 -20 -20
-20 -20 -20 -20 -20 -20 -20 -20 -20 -20 -20 -20 -20 -20 -20 -20 -20 -20 -20 -20 -20 -20
-20 -20 -20 -20 -20 -20 -20 -20 -20 -20 -20 -19 -19 -19 -20 -20 -20 -20 -17 -19 -20 -20
-20 -20 -20 -20 -20 -20 -20 -20 -20 -20 -20 -20 -20 -20 -20 -20 -20 -20 -20 -20 -20 -19
-20 -20 -20 -20 -20 -20 -20 -20 -20 -20 -20 -20 -20 -20 -20 -20 -20 -20 -13 -7 -20 -20

GFSNIL_prec_radar_120.txt.gz
Reflectivity
-20 -20 -20 -17 24 33 21 23 2 11 24 -13 -20 -20 3 32 39 42 40 38 29 -7
-20 -20 -20 -20 -20 -20 -9 -20 -20 2 25 31 11 14 3 21 37 38 32 28 25 13
-20 -20 -20 -20 -20 -20 -20 -20 -20 -9 -3 12 1 -2 13 26 25 20 12 2 -8 -20
-20 -20 -20 -20 -20 -20 -20 -20 -20 -20 -20 -20 -18 -19 -18 -6 -15 -15 -18 -20 -20 -20
-20 -20 -20 -20 -20 -20 -20 -20 -20 -20 -20 -20 -20 -20 -20 -20 -20 -20 -20 -20 -20 -20
-20 -20 -20 -20 -20 -20 -20 -20 -20 -20 -20 -20 -20 -20 -20 -20 -20 -20 -20 -20 -20 -20
-20 -20 -20 -20 -20 -20 -20 -20 -20 -20 -20 -20 -20 -20 -20 -20 -20 -20 -20 -20 -20 -20
-20 -20 -20 -20 -20 -20 -20 -20 -20 -20 -20 -20 -20 -20 -20 -20 -20 -20 -20 -20 -20 -20
-20 -20 -20 -20 -20 -20 -20 -20 -20 -20 -20 -20 -20 -20 -20 -20 -20 -20 -20 -20 -20 -20
-20 -20 -20 -20 -20 -20 -20 -20 -20 -20 -20 -20 -20 -20 -20 -20 -20 -20 -20 -20 -20 -20
-20 -20 -20 -20 -20 -20 -20 -20 -20 -20 -20 -20 -20 -20 -20 -20 -20 -20 -20 -20 -20 -20
-20 -20 -20 -20 -20 -20 -20 -20 -20 -20 -20 -20 -20 -20 -20 -20 -20 -20 -20 -20 -20 -20
-20 -20 -20 -20 -20 -20 -20 -20 -20 -20 -20 -20 -20 -20 -20 -20 -20 -20 -20 -20 -20 -20
-20 -20 -20 -20 -20 -20 -20 -20 -20 -20 -20 -20 -20 -20 -20 -20 -20 -20 -20 -20 -20 -20

GFSNIL_prec_radar_123.txt.gz
Reflectivity
-20 -20 -20 -20 -20 -20 -20 -20 -20 -20 -14 24 27 26 -19 -20 -20 -20 -20 -4 30 37
-20 -20 -20 -20 -20 -20 -20 -20 -20 -20 -20 -8 15 30 25 0 -11 -20 -4 12 15 29
-20 -20 -20 -20 -20 -20 -20 -20 -20 -20 -20 -20 -20 -6 -7 22 20 20 8 26 26 34
-20 -20 -20 -20 -20 -20 -20 -20 -20 -20 -20 -20 -20 -20 -20 -20 6 -5 -1 10 19 11
-20 -20 -20 -20 -20 -20 -20 -20 -20 -20 -20 -20 -20 -20 -20 -20 -20 -20 -20 -19 -20 -20
-20 -20 -20 -20 -20 -20 -20 -20 -20 -20 -20 -20 -20 -20 -20 -20 -20 -20 -20 -20 -20 -20
-20 -20 -20 -20 -20 -20 -20 -20 -20 -20 -20 -20 -20 -20 -20 -20 -20 -20 -20 -20 -20 -20
-20 -20 -20 -20 -20 -20 -20 -20 -20 -20 -20 -20 -20 -20 -20 -20 -20 -20 -20 -20 -20 -20
-20 -20 -20 -20 -20 -20 -20 -20 -20 -20 -20 -20 -20 -20 -20 -20 -20 -20 -20 -20 -20 -20
-20 -20 -20 -20 -20 -20 -20 -20 -20 -20 -20 -20 -20 -20 -20 -20 -20 -20 -20 -20 -20 -20
-20 -20 -20 -20 -20 -20 -20 -20 -20 -20 -20 -20 -20 -20 -20 -20 -20 -20 -20 -20 -20 -20
-20 -20 -20 -20 -20 -20 -20 -20 -20 -20 -20 -20 -20 -20 -20 -20 -20 -20 -20 -20 -20 -20
-20 -20 -20 -20 -20 -20 -20 -20 -20 -20 -20 -20 -20 -20 -20 -20 -20 -20 -20 -20 -20 -20
-20 -20 -20 -20 -20 -20 -20 -20 -20 -20 -20 -20 -20 -20 -20 -20 -20 -20 -20 -20 -20 -20

GFSNIL_prec_radar_126.txt.gz
Reflectivity
-20 -20 -20 -20 -20 -20 -20 -20 -20 -20 -20 -20 -20 -20 -18 27 24 -15 -20 -20 -20 -20
-20 -20 -20 -20 -20 -20 -20 -20 -20 -20 -20 -20 -20 -20 -20 -20 18 23 -3 -7 -11 -19
-20 -20 -20 -20 -20 -20 -20 -20 -20 -20 -20 -20 -20 -20 -20 -20 -20 -9 6 -12 -6 -17
-20 -20 -20 -20 -20 -20 -20 -20 -20 -20 -20 -20 -20 -20 -20 -20 -20 -20 -20 -20 -20 -20
-20 -20 -20 -20 -20 -20 -20 -20 -20 -20 -20 -20 -20 -20 -20 -20 -20 -20 -20 -20 -20 -20
-20 -20 -20 -20 -20 -20 -20 -20 -20 -20 -20 -20 -20 -20 -20 -20 -20 -20 -20 -20 -20 -20
-20 -20 -20 -20 -20 -20 -20 -20 -20 -20 -20 -20 -20 -20 -20 -20 -20 -20 -20 -20 -20 -20
-20 -20 -20 -20 -20 -20 -20 -20 -20 -20 -20 -20 -20 -20 -20 -20 -20 -20 -20 -20 -20 -20
-20 -20 -20 -20 -20 -20 -20 -20 -20 -20 -20 -20 -20 -20 -20 -20 -20 -20 -20 -20 -20 -20
-20 -20 -20 -20 -20 -20 -20 -20 -20 -20 -20 -20 -20 -20 -20 -20 -20 -20 -20 -20 -20 -20
-20 -20 -20 -20 -20 -20 -20 -20 -20 -20 -20 -20 -20 -20 -20 -20 -20 -20 -20 -20 -20 -20
-20 -20 -20 -20 -20 -20 -20 -20 -20 -20 -20 -20 -20 -20 -20 -20 -20 -20 -20 -20 -20 -20
-20 -20 -20 -20 -20 -20 -20 -20 -20 -20 -20 -20 -20 -20 -20 -20 -20 -20 -20 -20 -20 -20
-20 -20 -19 -5 -20 -17 -18 -20 -20 -20 -20 -20 -20 -20 -20 -20 -20 -20 -20 -20 -20 -20

GFSNIL_prec_radar_129.txt.gz
Reflectivity
-20 -20 -20 -20 -20 -20 -20 -20 -20 -20 -20 -20 -20 -20 -20 -20 -20 -20 -13 -20 -13 -1
-20 -20 -20 -20 -20 -20 -20 -20 -20 -20 -20 -20 -20 -20 -20 -20 -20 -20 -20 2 5 -17
-20 -20 -20 -20 -20 -20 -20 -20 -20 -20 -20 -20 -20 -20 -20 -20 -20 -20 -20 -20 -20 -20
-20 -20 -20 -20 -20 -20 -20 -20 -20 -20 -20 -20 -20 -20 -20 -20 -20 -20 -20 -20 -20 -20
-20 -20 -20 -20 -20 -20 -20 -20 -20 -20 -20 -20 -20 -20 -20 -20 -20 -20 -20 -20 -20 -20
-20 -20 -20 -20 -20 -20 -20 -20 -20 -20 -20 -20 -20 -20 -20 -20 -20 -20 -20 -20 -20 -20
-20 -20 -20 -20 -20 -20 -20 -20 -20 -20 -20 -20 -20 -20 -20 -20 -20 -20 -20 -20 -20 -20
-20 -20 -20 -20 -20 -20 -20 -20 -20 -20 -20 -20 -20 -20 -20 -20 -20 -20 -20 -20 -20 -20
-20 -20 -20 -20 -20 -20 -20 -20 -20 -20 -20 -20 -20 -20 -20 -20 -20 -20 -20 -20 -20 -20
-20 -20 -20 -20 -20 -20 -20 -20 -20 -20 -20 -20 -20 -20 -20 -20 -20 -20 -20 -20 -20 -20
-20 -20 -20 -20 -20 -20 -20 -20 -20 -20 -20 -20 -20 -20 -20 -20 -20 -20 -20 -20 -20 -20
-20 -20 -20 -20 -20 -20 -20 -20 -20 -20 -20 -10 -17 -20 -20 -20 -20 -20 -20 -20 -20 -20
-20 -20 -20 -20 -20 -20 -20 -1 -20 1 5 -19 -20 -20 -20 -20 -20 -20 -20 -20 -20 -20
-20 -20 -20 -20 -20 -20 -17 6 2 -5 -20 -19 -20 -20 -20 -20 -20 -20 -20 -20 -20 -20

GFSNIL_prec_radar_132.txt.gz
Reflectivity
-20 -20 -20 -20 -20 -20 -20 -20 -20 -20 -20 -20 -20 -20 -20 -20 -20 -20 -20 -20 -20 -20
-20 -20 -20 -20 -20 -20 -20 -20 -20 -20 -20 -20 -20 -20 -20 -20 -20 -20 -20 -20 -20 -20
-20 -20 -20 -20 -20 -20 -20 -20 -20 -20 -20 -20 -20 -20 -20 -20 -20 -20 -20 -20 -20 -20
-20 -20 -20 -20 -20 -20 -20 -20 -20 -20 -20 -20 -20 -20 -20 -20 -20 -20 -20 -20 -20 -20
-20 -20 -20 -20 -20 -20 -20 -20 -20 -20 -20 -20 -20 -20 -20 -20 -20 -20 -20 -20 -20 -20
-20 -20 -20 -20 -20 -20 -20 -20 -20 -20 -20 -20 -20 -20 -20 -20 -20 -20 -20 -20 -20 -20
-20 -20 -20 -20 -20 -20 -20 -20 -20 -20 -20 -20 -20 -20 -20 -20 -20 -20 -20 -20 -20 -20
-20 -20 -20 -20 -20 -20 -20 -20 -20 -20 -20 -20 -20 -20 -20 -20 -20 -20 -20 -20 -20 -20
-20 -20 -20 -20 -20 -20 -20 -20 -20 -20 -20 -20 -20 -20 -20 -20 -20 -20 -20 -20 -20 -20
-20 -20 -20 -20 -20 -20 -20 -20 -20 -20 -20 -20 -20 -19 -18 -20 -17 -20 -20 -20 -20 -20
-20 -20 -20 -20 -20 -20 -20 -20 -20 -20 -20 -20 3 -15 -20 -15 -16 -20 -20 -20 -20 -20
-20 -20 -20 -20 -20 -20 -20 -20 -20 -20 -20 -20 1 -11 -20 -15 -1 -9 -20 -20 -20 -20
-20 -20 -20 -20 -20 -20 -20 -20 -20 -20 -20 -15 -18 -20 -20 -20 -18 -12 -10 -20 -20 -20
-20 -20 -20 -20 -20 -20 -20 -20 -20 -20 -20 -20 -20 -20 -20 -20 -11 -13 -20 -20 -20 -20